Location: Icefog Observatory
(64.9000°N, 147.4000°W)
Time: 19:21:59
(UTC-08:00)

N. Korean satellite - Visible Passes

Search period start: 06 October 2022 00:00
Search period end: 16 October 2022 00:00
Orbit: 425 x 467 km, 97.3° (Epoch: 06 October)

Date Brightness Start Highest point End Pass type
(mag) Time Alt. Az. Time Alt. Az. Time Alt. Az.
06 Oct 9.6 06:15:23 10° NE 06:17:36 17° E 06:19:49 10° SE visible
07 Oct 7.6 07:11:25 10° NNE 07:14:36 45° ESE 07:17:45 10° S visible
08 Oct 9.1 06:35:29 10° NE 06:38:12 23° E 06:40:53 10° SSE visible
09 Oct 9.8 06:00:00 10° NE 06:01:35 13° E 06:03:10 10° ESE visible
09 Oct 6.7 07:31:39 10° NNE 07:34:55 68° ESE 07:38:11 10° S visible
10 Oct 8.3 06:55:26 10° NNE 06:58:28 33° E 07:01:29 10° SSE visible
11 Oct 9.5 06:19:28 10° NE 06:21:48 18° E 06:24:09 10° SE visible
12 Oct 7.4 07:15:13 10° NNE 07:18:26 49° ESE 07:21:38 10° S visible
12 Oct 10.0 19:32:17 10° WSW 19:33:43 12° W 19:35:10 10° WNW visible
13 Oct 8.9 06:38:56 10° NE 06:41:43 25° E 06:44:30 10° SSE visible
14 Oct 9.7 06:03:03 10° NE 06:04:48 14° E 06:06:33 10° ESE visible
14 Oct 6.6 07:34:47 10° NNE 07:38:05 73° ESE 07:41:21 10° SSW visible
15 Oct 8.2 06:58:15 10° NNE 07:01:19 35° E 07:04:23 10° SSE visible
15 Oct 9.7 19:14:13 10° SW 19:16:24 16° W 19:18:34 10° NW visible
